Flag for U.S.A. Weather past 2 weeks in Sunrise, Florida, U.S.A.

Now
79 °F

More clouds than sun.


Feels Like: 82 °F
Forecast: 73 / 80 °F
Wind: 3 mph from Southeast

Location: Fort Lauderdale Executive Airport

Current Time: Oct 21, 2014 at 10:34:23 AM

Latest Report: Oct 21, 2014 at 9:53 AM


Visibility: 10 mi

Pressure: 29.98 "Hg

Humidity: 79%

Dew point: 72 °F

Location of SunriseLocation

Historic Weather in Sunrise — Graph

°F

Sunrise temperature yesterday

Maximum temperature yesterday: 85 °F (at 1:53 PM)
Minimum temperature yesterday: 69 °F (at 4:53 AM)
Average temperature yesterday: 78 °F

Past Weeks' High & Low Weather Summary

 TemperatureHumidityPressure
High88 °F (Oct 14, 12:53 PM)91% (Oct 8, 7:53 AM)30.12 "Hg (Oct 8, 7:53 AM)
Low66 °F (Oct 17, 7:53 AM)35% (Oct 17, 12:53 PM)29.88 "Hg (Oct 16, 5:53 PM)
Average80 °F69%30.00 "Hg
* Reported Oct 6 8:53 AM — Oct 21 8:53 AM, Sunrise, Weather by CustomWeather, © 2014

Note: Actual official high and low records may vary slightly from our data, if they occured in-between our weather recording intervals... More about our weather records

Advertising

Sunrise weather history for previous 24 hours

 ConditionsComfort  
Time TempWeatherWind HumidityBarometerVisibility
8:53 AM
Oct 21
77 °FScattered clouds.5 mph79%29.95 "Hg10 mi
7:53 AM74 °FPassing clouds.10 mph85%29.94 "Hg10 mi
6:53 AM77 °FPassing clouds.6 mph85%29.94 "Hg10 mi
5:53 AM76 °FClear.3 mph85%29.92 "Hg10 mi
4:53 AM76 °FPassing clouds.No wind88%29.91 "Hg10 mi
3:53 AM76 °FPassing clouds.No wind88%29.91 "Hg10 mi
2:53 AM76 °FOvercast.3 mph88%29.93 "Hg10 mi
1:53 AM76 °FMostly cloudy.No wind91%29.95 "Hg10 mi
12:53 AM76 °FPassing clouds.No wind88%29.97 "Hg10 mi
11:53 PM
Oct 20
77 °FPassing clouds.No wind85%29.98 "Hg10 mi
10:53 PM76 °FPassing clouds.No wind88%29.99 "Hg10 mi
9:53 PM77 °FMostly cloudy.6 mph85%29.98 "Hg10 mi
8:53 PM77 °FOvercast.5 mph79%29.97 "Hg10 mi
7:53 PM79 °FLight rain. Overcast.9 mph72%29.97 "Hg10 mi
6:53 PM80 °FOvercast.10 mph64%29.95 "Hg10 mi
5:53 PM79 °FLight rain. Broken clouds.12 mph69%29.94 "Hg10 mi
4:53 PM81 °FBroken clouds.12 mph62%29.95 "Hg10 mi
3:53 PM82 °FBroken clouds.8 mph60%29.96 "Hg10 mi
2:53 PM84 °FScattered clouds.14 mph53%29.96 "Hg10 mi
1:53 PM85 °FScattered clouds.10 mph51%29.97 "Hg10 mi
12:53 PM84 °FScattered clouds.9 mph49%30.01 "Hg10 mi
11:53 AM84 °FScattered clouds.7 mph48%30.03 "Hg10 mi
10:53 AM83 °FPassing clouds.9 mph50%30.03 "Hg10 mi
Weather by CustomWeather, © 2014

See weather overviewHow to use our weather pages